Wind_Speed
3 3 2 1 2 2 3 5 6 8 9 10 10 11 12 13 13 13 13 12 12 12 11 11 10 9 9 9 8 8 8 8 7 7 7 6 6 6 6 6 5 4 4 3 3 3 3 2 2
5 4 4 3 2 3 3 4 5 7 8 9 10 11 12 13 12 12 12 12 11 11 11 10 10 9 8 9 9 8 8 7 7 7 7 6 6 6 6 6 6 6 4 4 3 3 2 2 1
6 6 5 4 4 4 4 4 4 6 7 8 9 10 11 12 12 12 12 12 11 10 10 10 10 10 8 8 9 8 8 7 7 7 6 6 6 6 6 7 7 6 5 4 3 3 2 2 2
7 7 6 5 4 4 4 5 5 6 7 7 9 9 11 12 12 11 11 11 11 10 10 9 9 10 9 9 9 9 8 8 7 7 7 6 6 6 7 7 7 6 5 4 3 3 2 2 2
8 7 6 6 6 6 6 6 6 6 7 7 8 9 11 12 11 11 11 11 10 9 10 10 10 10 9 9 9 8 8 7 7 7 7 7 7 7 7 7 6 5 4 4 3 2 1 2 3
9 8 8 7 7 7 7 6 7 7 8 8 8 10 11 12 11 10 10 10 10 10 10 10 10 9 9 8 8 8 8 7 7 8 8 8 7 7 7 7 6 4 2 3 2 2 2 2 2
10 9 8 8 9 9 8 8 9 10 9 9 9 10 11 12 11 11 10 10 10 11 11 10 9 9 8 8 9 8 8 7 7 7 7 7 7 6 6 6 6 4 2 0 1 2 2 2 2
11 10 9 10 10 10 10 10 11 11 11 9 10 10 11 11 11 11 10 10 11 11 10 10 9 9 8 8 8 8 8 7 7 7 7 6 6 6 5 5 5 4 3 0 1 2 2 2 2
11 10 10 11 11 10 11 11 12 12 11 10 11 11 11 11 11 11 10 10 10 10 10 10 9 8 8 8 8 8 8 8 7 7 6 6 6 5 5 5 4 4 2 1 1 1 2 2 2
12 11 11 11 11 12 12 13 13 12 11 10 10 11 11 11 11 11 10 10 9 9 10 9 9 9 8 8 8 8 8 7 7 7 6 6 6 5 4 4 4 3 2 2 1 2 2 2 3
12 12 13 13 13 13 14 13 13 12 11 11 11 12 12 12 11 11 10 10 10 9 9 9 9 9 9 8 8 7 7 7 7 6 6 6 6 6 5 4 3 2 2 2 3 3 3 3 3
13 12 13 14 14 14 15 14 13 13 13 12 12 12 13 12 12 12 12 11 10 9 9 9 9 9 9 8 7 7 7 7 7 6 6 6 6 7 6 4 3 3 3 2 3 4 4 4 4
14 13 13 14 15 14 14 14 14 14 14 13 13 13 13 13 13 13 13 11 10 10 10 10 9 10 9 8 8 7 7 7 7 6 6 6 7 7 7 5 4 4 3 3 3 4 4 5 5
15 14 14 14 14 15 14 14 14 14 15 14 13 13 14 13 13 13 13 12 10 10 9 10 9 9 8 8 8 8 7 7 6 6 6 6 7 7 7 6 4 4 3 3 4 4 4 5 5
15 14 14 15 15 15 15 15 14 14 15 14 13 14 14 12 12 13 13 12 11 10 10 9 9 9 9 8 8 8 8 7 7 7 7 7 7 7 7 7 4 4 4 4 4 4 5 5 4
16 15 15 15 15 15 15 15 15 16 15 14 14 14 14 12 12 13 13 12 11 11 10 10 10 10 10 10 9 9 9 8 8 8 7 7 7 7 7 7 5 5 4 5 5 5 5 5 6
16 16 16 16 16 16 16 17 17 17 17 16 14 14 14 13 13 12 12 11 11 12 11 11 11 11 11 10 9 10 9 9 9 9 8 8 8 8 8 8 7 6 6 5 5 6 6 6 6
18 18 17 18 18 18 17 17 18 18 17 15 15 14 14 14 13 13 12 12 12 12 12 12 12 12 12 11 9 9 9 9 9 9 10 9 9 8 8 8 7 7 6 6 5 6 6 7 7
20 20 19 18 19 19 19 18 18 18 17 16 16 15 14 14 14 14 14 13 13 12 12 12 11 11 11 11 10 10 11 11 11 10 10 10 10 9 8 8 7 7 7 6 6 6 6 7 8
21 21 19 19 20 20 20 19 18 19 18 17 17 16 16 15 15 15 15 14 14 14 13 11 11 11 11 11 12 12 12 12 13 11 11 11 10 10 9 9 8 8 7 8 8 8 7 7 8
21 21 20 20 21 21 20 18 19 20 20 19 18 18 17 17 16 15 15 16 16 15 13 12 11 12 12 12 12 12 13 13 13 11 11 11 11 11 10 10 10 9 9 9 9 9 9 9 9
20 20 20 21 21 21 20 19 18 19 19 19 19 18 18 18 17 15 16 17 16 16 14 13 13 13 13 14 13 12 13 14 14 13 12 13 13 12 12 12 11 11 10 10 10 10 10 10 10
20 20 20 20 21 21 21 21 19 19 19 18 18 19 19 19 18 17 17 18 17 17 17 16 15 15 15 15 15 14 14 14 14 13 13 14 13 13 13 13 13 12 11 11 11 11 11 11 11
20 20 21 21 21 22 20 22 20 18 18 18 18 18 18 18 18 18 18 18 18 18 18 17 16 16 16 16 15 15 15 14 14 14 15 15 15 14 13 13 14 14 13 13 13 12 12 12 13
20 21 22 22 22 21 20 22 20 18 18 18 18 18 17 17 18 18 19 19 19 19 18 17 17 18 18 17 16 15 15 15 15 15 16 16 16 15 15 14 15 15 15 15 14 13 13 13 14
20 20 21 22 21 21 21 22 20 19 19 19 18 18 18 18 19 19 20 21 21 20 20 19 20 19 18 18 17 16 16 16 17 17 17 17 16 16 16 15 16 16 15 15 15 14 14 14 14
21 21 21 22 22 22 22 21 19 19 19 19 18 18 19 19 20 20 21 21 21 20 20 21 20 19 20 20 19 18 18 18 18 18 18 18 18 17 17 17 17 17 17 16 15 15 15 15 15
21 21 21 22 23 23 22 21 19 19 19 20 19 19 19 19 21 21 21 21 22 21 21 20 20 20 20 20 19 19 19 19 19 20 20 20 19 19 19 19 18 18 18 17 17 16 16 17 17
21 21 22 23 24 24 24 22 20 20 20 20 21 21 20 20 21 21 21 21 22 21 21 21 21 21 20 19 19 20 20 20 21 21 21 21 21 21 21 20 20 19 18 18 18 18 18 18 18
21 22 22 22 23 24 25 23 21 21 21 21 22 22 21 22 21 21 20 21 20 20 21 21 21 21 20 20 20 21 21 21 22 22 22 22 22 21 21 22 22 21 20 20 19 19 19 19 19
Wind_Direction
225 238 242 256 294 323 3 20 18 19 17 13 15 17 14 9 9 7 5 4 3 2 2 1 360 1 5 9 12 13 15 16 12 9 2 357 353 347 344 342 345 336 320 308 307 311 309 302 273
237 243 249 257 271 307 341 355 358 5 9 9 11 11 11 7 4 2 1 0 356 358 359 0 360 358 0 6 9 10 8 9 5 3 2 1 355 350 343 338 335 327 319 304 298 306 307 300 249
243 249 255 264 276 296 316 334 347 352 358 2 3 4 4 360 355 351 352 353 351 352 354 357 360 0 1 6 5 6 5 5 4 1 4 3 360 353 344 335 327 317 306 296 290 286 293 270 214
246 252 256 266 275 296 305 322 329 330 343 358 359 0 357 353 350 346 345 347 347 349 352 352 358 3 2 3 2 2 4 5 4 1 360 2 360 355 348 337 327 312 297 289 275 268 279 248 230
246 254 262 271 270 284 296 304 317 328 333 353 359 359 355 350 349 345 343 345 345 346 349 350 355 360 1 1 0 2 3 2 359 358 359 0 358 356 350 345 340 322 290 274 264 258 263 238 225
249 257 264 269 264 271 286 305 315 320 333 350 357 357 355 352 348 346 345 343 344 345 346 348 354 358 355 357 357 1 2 360 357 356 356 356 353 349 349 354 355 352 292 252 251 249 265 250 225
250 258 264 262 260 264 278 295 299 311 324 336 348 353 355 353 353 351 348 345 345 346 346 346 351 356 357 359 3 5 0 355 354 354 355 353 349 342 347 357 2 13 13 315 233 239 253 255 229
248 254 259 260 260 266 275 289 296 303 313 324 337 344 350 349 348 346 346 346 343 341 343 347 350 353 355 357 359 3 3 355 354 355 353 352 349 340 342 350 2 9 12 21 214 233 239 237 232
246 249 252 254 256 268 276 284 293 299 307 314 325 333 340 343 342 339 340 341 339 339 342 347 348 347 348 352 353 358 2 356 353 351 349 349 348 339 337 344 347 359 4 355 289 231 222 224 237
247 246 245 249 257 265 277 288 292 297 299 308 317 324 330 335 335 336 337 338 335 337 343 348 347 344 345 348 349 350 352 353 349 347 347 343 339 334 328 331 336 350 353 325 286 247 237 227 237
248 245 245 246 257 266 275 286 293 299 300 308 312 318 325 329 332 332 332 333 330 332 338 342 342 338 340 340 342 342 348 349 342 339 344 348 343 334 330 330 336 338 337 304 276 253 245 241 242
249 248 248 249 256 263 271 280 289 295 296 302 305 314 320 318 320 320 324 327 326 329 332 331 332 332 330 330 334 337 340 341 339 333 335 340 340 335 331 320 319 320 307 286 270 254 245 244 239
250 249 250 251 254 261 271 278 284 289 293 299 302 309 311 312 314 317 317 321 320 322 323 320 322 325 322 320 321 324 334 337 339 336 332 334 334 335 333 322 306 300 291 278 258 243 244 246 242
250 250 251 251 254 258 266 274 282 287 290 295 299 302 304 306 307 310 311 313 310 309 313 317 320 324 320 313 311 319 321 327 328 333 332 331 332 334 332 323 303 291 285 279 265 244 237 242 241
250 251 252 252 253 258 265 273 278 281 285 290 293 295 296 299 302 306 308 301 298 299 303 306 310 315 315 310 307 311 312 317 324 325 331 331 331 331 331 327 303 284 274 269 263 253 244 246 244
251 251 250 251 255 261 267 270 272 274 279 284 287 288 290 297 299 304 304 296 294 292 292 293 298 303 306 305 304 303 306 308 312 316 322 327 328 328 325 322 300 289 275 259 259 255 249 248 247
251 253 252 252 257 262 267 270 270 274 277 281 282 284 287 291 296 298 301 295 295 292 286 288 292 295 297 297 297 297 304 308 308 309 313 316 320 322 317 313 297 288 278 266 252 245 247 251 248
253 253 253 252 256 261 266 269 271 272 276 278 279 281 283 289 293 292 294 296 299 297 293 289 287 290 292 292 291 297 299 304 307 304 303 305 306 309 309 307 299 291 283 275 265 252 248 250 251
251 252 254 255 257 260 263 265 268 272 273 275 277 279 281 286 289 288 289 290 294 295 292 289 283 285 287 288 289 292 295 295 296 296 296 298 298 298 297 296 293 286 283 278 270 261 255 252 253
251 253 254 254 257 261 263 264 265 268 268 271 273 276 279 283 286 285 288 289 290 290 291 290 284 287 288 287 285 288 293 292 290 287 287 291 293 292 289 287 284 280 275 273 269 264 263 258 254
252 253 254 254 256 261 263 262 261 264 269 271 272 274 276 279 281 283 289 291 295 295 295 291 287 287 287 284 286 289 290 287 285 285 287 288 287 284 283 281 278 275 271 267 270 270 268 266 258
256 258 256 256 258 261 263 263 261 265 271 273 273 272 274 276 277 283 289 292 295 294 294 293 286 284 283 283 287 288 288 286 283 284 286 286 285 283 281 278 276 276 271 266 266 265 265 263 258
258 256 256 255 260 263 265 268 266 267 274 275 275 273 274 276 277 282 285 288 290 292 292 291 283 281 281 281 282 285 285 284 281 280 282 283 282 282 282 279 273 270 269 266 262 260 262 261 256
256 255 256 256 261 264 265 268 268 270 274 274 276 276 276 275 277 279 280 282 283 285 287 287 280 279 279 279 280 281 280 280 281 278 278 279 280 280 279 277 273 267 265 263 260 259 260 260 254
256 256 256 257 260 264 265 267 270 271 272 275 278 280 279 277 278 278 278 279 280 281 282 282 281 280 277 277 277 277 274 275 277 277 275 276 278 276 273 272 272 268 264 262 259 258 259 260 257
257 257 258 263 264 264 266 270 273 273 273 274 276 279 279 280 280 278 277 279 278 278 279 279 280 277 275 278 277 275 273 275 275 275 274 273 274 272 271 272 272 268 263 261 258 256 259 262 259
255 255 259 263 264 267 269 272 273 275 276 276 278 280 280 280 281 280 277 276 277 279 281 277 275 272 274 275 276 276 274 274 274 275 273 272 271 269 268 269 269 267 263 262 259 257 257 258 258
254 257 260 263 266 269 271 273 277 277 278 278 280 283 282 282 281 279 279 276 276 280 283 281 277 275 273 274 275 274 272 271 271 272 272 271 269 267 267 265 266 266 263 261 261 260 258 259 260
258 259 262 264 268 272 274 276 278 279 280 281 281 282 283 283 285 283 281 281 280 280 281 281 279 275 272 273 273 273 272 271 270 270 270 268 266 265 265 262 262 262 260 261 260 261 261 260 261
259 260 263 266 270 274 276 277 279 280 281 284 285 285 284 284 286 284 284 286 284 282 280 281 276 273 270 271 272 273 273 272 271 270 269 268 266 265 264 262 261 261 260 260 261 261 261 263 262
Height
5890 5890 5891 5892 5892 5892 5891 5891 5890 5889 5889 5888 5887 5886 5886 5885 5885 5886 5884 5881 5880 5879 5877 5876 5875 5874 5873 5872 5871 5870 5869 5869 5868 5867 5867 5866 5866 5865 5865 5865 5864 5864 5864 5865 5865 5865 5866 5866 5866
5890 5890 5892 5892 5892 5891 5891 5891 5890 5889 5889 5888 5887 5886 5885 5885 5884 5884 5882 5881 5880 5879 5877 5876 5875 5874 5873 5872 5871 5870 5869 5869 5868 5867 5866 5866 5865 5864 5864 5863 5863 5863 5863 5863 5864 5865 5865 5865 5866
5889 5890 5892 5892 5891 5891 5891 5891 5890 5889 5889 5888 5887 5886 5885 5885 5884 5883 5882 5881 5880 5879 5877 5876 5875 5874 5872 5871 5871 5870 5869 5868 5867 5867 5866 5865 5864 5864 5863 5862 5861 5861 5861 5862 5862 5863 5864 5865 5865
5889 5890 5891 5892 5891 5891 5891 5891 5890 5889 5888 5888 5887 5886 5885 5885 5884 5883 5882 5881 5879 5878 5877 5876 5875 5873 5872 5871 5871 5870 5869 5868 5867 5866 5865 5865 5864 5862 5861 5860 5858 5857 5858 5859 5861 5862 5863 5864 5864
5889 5890 5890 5890 5890 5890 5890 5890 5890 5889 5888 5887 5887 5886 5885 5884 5883 5883 5882 5880 5879 5878 5877 5876 5875 5873 5872 5871 5871 5869 5869 5868 5867 5866 5865 5864 5863 5861 5860 5858 5855 5853 5854 5857 5859 5861 5863 5863 5864
5888 5889 5889 5889 5889 5889 5889 5889 5888 5888 5888 5887 5887 5885 5884 5884 5883 5882 5881 5880 5879 5878 5877 5875 5874 5873 5872 5871 5870 5869 5868 5867 5866 5866 5864 5863 5862 5860 5859 5857 5854 5852 5853 5856 5859 5861 5862 5863 5863
5887 5888 5888 5888 5888 5888 5888 5888 5887 5887 5887 5887 5886 5885 5884 5883 5883 5882 5881 5880 5879 5878 5876 5875 5874 5872 5872 5871 5870 5868 5868 5867 5866 5865 5864 5863 5862 5860 5859 5858 5855 5854 5855 5856 5858 5860 5861 5862 5863
5885 5887 5886 5886 5887 5887 5887 5887 5886 5886 5886 5885 5885 5884 5883 5883 5882 5881 5881 5879 5878 5877 5876 5875 5873 5872 5871 5870 5869 5868 5867 5866 5865 5865 5863 5862 5861 5860 5859 5858 5857 5856 5856 5857 5858 5860 5861 5862 5863
5884 5886 5885 5885 5885 5885 5885 5885 5885 5885 5885 5885 5884 5883 5883 5882 5881 5880 5879 5879 5877 5876 5875 5874 5873 5872 5871 5870 5868 5867 5866 5866 5865 5864 5863 5862 5861 5860 5859 5859 5858 5857 5857 5858 5859 5860 5861 5862 5862
5882 5883 5883 5883 5883 5884 5883 5884 5884 5884 5884 5884 5883 5883 5882 5881 5880 5879 5878 5877 5876 5876 5874 5873 5872 5872 5871 5869 5868 5867 5866 5865 5864 5863 5862 5861 5861 5860 5859 5858 5858 5858 5858 5858 5859 5859 5860 5861 5862
5880 5881 5881 5881 5882 5882 5882 5882 5882 5882 5882 5882 5882 5881 5880 5880 5879 5878 5877 5876 5875 5874 5874 5872 5872 5871 5870 5869 5868 5867 5865 5864 5864 5863 5862 5861 5860 5860 5859 5858 5858 5858 5857 5858 5858 5859 5859 5860 5861
5878 5879 5879 5880 5880 5880 5880 5880 5881 5881 5881 5881 5880 5880 5879 5878 5877 5877 5876 5875 5874 5873 5872 5871 5870 5870 5869 5868 5867 5866 5865 5864 5863 5862 5861 5860 5860 5859 5858 5858 5858 5857 5857 5857 5857 5858 5859 5859 5860
5875 5876 5877 5877 5877 5878 5878 5879 5879 5879 5879 5879 5878 5878 5877 5876 5876 5875 5874 5872 5872 5871 5870 5870 5869 5868 5868 5867 5866 5865 5864 5863 5862 5861 5860 5860 5859 5858 5858 5857 5857 5856 5856 5856 5856 5857 5857 5858 5859
5873 5873 5874 5875 5875 5876 5877 5877 5877 5877 5877 5876 5876 5876 5875 5874 5873 5872 5871 5871 5870 5869 5868 5868 5867 5866 5866 5865 5865 5863 5862 5862 5861 5860 5859 5859 5858 5857 5857 5856 5856 5855 5855 5855 5856 5856 5856 5857 5857
5870 5871 5872 5873 5873 5873 5874 5875 5875 5875 5874 5874 5874 5874 5873 5872 5871 5870 5869 5869 5868 5867 5866 5866 5866 5865 5864 5864 5863 5862 5860 5860 5860 5859 5858 5857 5857 5856 5855 5855 5854 5854 5854 5854 5854 5854 5855 5855 5856
5867 5869 5870 5870 5870 5871 5873 5873 5872 5871 5871 5871 5872 5871 5871 5870 5868 5867 5867 5866 5866 5865 5865 5864 5863 5863 5862 5862 5861 5860 5859 5858 5858 5858 5857 5856 5855 5855 5854 5854 5853 5853 5853 5853 5853 5853 5854 5854 5855
5864 5865 5866 5867 5867 5868 5869 5869 5869 5869 5869 5869 5869 5869 5868 5867 5866 5865 5864 5864 5863 5863 5862 5861 5861 5860 5860 5859 5859 5858 5857 5857 5857 5856 5855 5854 5854 5853 5853 5852 5852 5851 5851 5851 5851 5852 5852 5853 5853
5861 5862 5863 5864 5864 5864 5864 5865 5866 5866 5866 5866 5866 5866 5865 5864 5863 5862 5861 5861 5861 5860 5859 5858 5858 5857 5857 5856 5856 5856 5855 5855 5854 5854 5854 5853 5852 5852 5851 5851 5850 5850 5850 5850 5850 5850 5851 5851 5852
5857 5858 5860 5861 5860 5861 5861 5861 5862 5862 5863 5863 5863 5862 5862 5861 5860 5859 5858 5858 5857 5856 5855 5855 5854 5854 5854 5853 5853 5852 5852 5852 5852 5852 5851 5850 5850 5849 5849 5849 5848 5848 5848 5848 5848 5849 5849 5849 5850
5853 5855 5856 5857 5856 5857 5857 5858 5859 5859 5859 5859 5859 5859 5858 5857 5856 5855 5855 5854 5853 5852 5852 5851 5850 5850 5850 5850 5850 5850 5849 5849 5849 5849 5848 5848 5847 5847 5847 5846 5846 5846 5846 5847 5847 5847 5847 5847 5848
5850 5851 5852 5853 5852 5853 5854 5855 5855 5855 5855 5855 5855 5854 5854 5853 5853 5852 5851 5850 5849 5849 5847 5846 5847 5847 5847 5847 5846 5846 5846 5846 5846 5845 5845 5845 5844 5844 5844 5843 5843 5843 5844 5844 5845 5845 5845 5845 5845
5847 5848 5848 5848 5848 5849 5850 5850 5851 5851 5851 5850 5850 5849 5849 5849 5848 5847 5847 5847 5846 5845 5844 5843 5843 5843 5843 5843 5843 5842 5842 5842 5842 5842 5842 5841 5841 5841 5840 5840 5840 5840 5841 5841 5842 5842 5842 5843 5843
5843 5843 5843 5844 5844 5845 5845 5845 5847 5847 5847 5847 5846 5845 5845 5844 5844 5844 5843 5843 5842 5841 5840 5839 5839 5839 5839 5839 5839 5839 5838 5838 5838 5838 5838 5838 5837 5837 5836 5837 5837 5837 5837 5838 5838 5839 5839 5840 5840
5839 5839 5839 5840 5840 5841 5842 5841 5842 5843 5843 5842 5842 5841 5841 5840 5840 5839 5839 5838 5837 5836 5836 5835 5835 5835 5834 5834 5834 5834 5834 5834 5834 5834 5834 5833 5833 5833 5833 5833 5833 5833 5834 5835 5835 5836 5836 5837 5837
5835 5836 5836 5836 5836 5837 5837 5837 5838 5838 5838 5838 5837 5837 5836 5836 5835 5835 5834 5833 5832 5832 5831 5830 5830 5830 5830 5829 5829 5829 5829 5829 5829 5829 5829 5829 5829 5828 5829 5829 5829 5830 5830 5831 5831 5832 5833 5833 5834
5830 5832 5832 5832 5832 5833 5833 5832 5835 5834 5833 5833 5833 5832 5832 5831 5830 5830 5829 5828 5827 5826 5826 5825 5825 5824 5824 5824 5824 5824 5824 5824 5824 5824 5824 5824 5824 5824 5824 5825 5825 5826 5826 5827 5827 5828 5829 5829 5830
5826 5827 5828 5828 5828 5828 5828 5829 5830 5829 5829 5829 5829 5828 5827 5826 5825 5824 5823 5822 5821 5820 5819 5819 5818 5818 5819 5819 5819 5819 5819 5819 5819 5819 5819 5819 5819 5819 5820 5820 5821 5821 5821 5822 5823 5824 5825 5825 5826
5822 5822 5823 5823 5823 5823 5824 5824 5825 5825 5825 5824 5824 5823 5822 5821 5820 5819 5817 5817 5816 5815 5814 5813 5812 5812 5813 5813 5813 5813 5813 5813 5813 5813 5814 5814 5814 5814 5814 5815 5816 5816 5817 5818 5818 5819 5820 5821 5821
5817 5818 5818 5818 5819 5819 5818 5822 5821 5820 5820 5820 5819 5818 5817 5816 5815 5814 5812 5811 5810 5810 5809 5808 5807 5807 5807 5807 5807 5807 5807 5807 5807 5807 5807 5808 5808 5808 5809 5809 5810 5811 5812 5812 5813 5814 5815 5815 5816
5812 5813 5813 5814 5814 5814 5814 5818 5816 5815 5814 5814 5813 5813 5812 5811 5810 5809 5807 5806 5805 5804 5803 5803 5802 5801 5801 5801 5801 5801 5801 5801 5801 5801 5801 5801 5802 5802 5803 5804 5805 5805 5806 5807 5808 5808 5809 5810 5811